CAPE
458 586 768 589 530 423 424 346 346 807 1109 1133 674 134 88 1099 1038 971 994 984 845 438
231 470 658 690 604 595 579 278 294 775 1106 1035 1126 856 945 1144 1107 999 981 731 853 837
381 350 459 659 636 851 682 313 170 414 638 602 976 1439 1284 1261 1079 997 967 764 730 693
189 383 463 554 859 1002 598 221 93 265 41 355 916 1247 1191 1034 965 803 760 893 632 592
136 382 504 788 828 1038 543 358 343 101 0 533 975 959 1055 979 1186 914 589 300 475 591
453 372 493 852 958 890 773 723 530 582 593 634 1044 1057 1073 1028 916 805 560 0 228 743
586 427 601 860 926 944 647 689 721 599 665 821 1127 1195 1023 1118 995 902 747 585 736 769
744 723 935 1045 1012 1037 994 950 897 678 811 1031 1153 1208 1166 1030 950 884 692 833 735 544
922 940 886 856 897 805 844 800 1100 882 913 1025 1134 880 808 876 981 824 561 615 559 238
872 805 750 537 11 124 179 751 694 906 881 1040 950 533 559 703 766 921 771 561 509 487
659 625 632 464 193 52 0 51 562 570 669 597 400 167 318 473 674 776 658 477 514 553
674 721 566 546 443 301 14 253 215 290 230 200 153 67 53 165 304 265 109 59 262 299
375 443 556 575 544 312 166 207 76 44 70 47 12 0 3 70 177 71 7 0 2 3
188 236 233 303 201 185 206 144 33 0 0 1 6 0 0 1 116 35 0 0 0 0
CIN
-66 -50 -40 -41 -41 -49 -49 -42 -45 -34 -33 -36 -71 -123 -38 -35 -36 -40 -37 -27 -38 -68
-116 -90 -69 -55 -45 -48 -50 -54 -60 -56 -27 -35 -40 -44 -37 -26 -19 -33 -35 -44 -30 -40
-121 -111 -91 -68 -58 -44 -52 -64 -87 -84 -47 -40 -30 -23 -25 -20 -26 -28 -36 -49 -32 -40
-145 -119 -101 -90 -68 -47 -64 -95 -115 -82 -103 -57 -28 -19 -21 -21 -29 -35 -39 -40 -37 -34
-152 -118 -106 -81 -81 -60 -72 -83 -95 -88 0 -57 -23 -23 -19 -23 -24 -28 -35 -63 -48 -31
-130 -117 -111 -93 -81 -68 -67 -55 -67 -64 -70 -62 -34 -30 -20 -25 -29 -33 -40 0 -60 -29
-112 -108 -114 -104 -92 -69 -79 -59 -48 -49 -56 -56 -39 -28 -27 -16 -27 -31 -36 -43 -41 -33
-99 -99 -89 -79 -79 -69 -51 -40 -39 -36 -33 -29 -24 -21 -20 -25 -23 -25 -42 -32 -40 -56
-78 -74 -62 -50 -56 -59 -41 -33 -21 -25 -20 -17 -19 -40 -44 -27 -19 -25 -27 -26 -44 -95
-36 -27 -16 -42 -45 -86 -88 -38 -25 -24 -23 -15 -24 -64 -64 -41 -24 -25 -27 -30 -41 -56
-33 -27 -39 -45 -20 -79 0 -142 -23 -32 -34 -33 -80 -135 -96 -58 -41 -40 -42 -49 -44 -46
-83 -53 -59 -49 -51 -63 -184 -115 -61 -55 -53 -80 -110 -196 -171 -94 -65 -84 -139 -168 -87 -65
-115 -86 -51 -46 -46 -67 -70 -52 -23 -75 -116 -197 -172 0 -222 -160 -101 -141 -199 -247 -242 -217
-127 -98 -92 -74 -79 -62 -46 -62 -83 0 0 -155 -170 0 0 -117 -88 -155 0 0 0 0
Wind_Speed
21 8 7 2 4 12 7 6 5 9 10 12 16 18 15 18 11 18 12 13 13 15
20 13 8 8 1 3 4 4 5 5 8 9 16 19 19 8 12 10 8 13 12 14
17 17 10 3 6 3 5 2 4 2 3 10 16 21 17 7 13 10 12 11 11 11
16 14 13 8 3 15 5 5 2 7 7 3 11 7 7 7 11 15 9 8 10 11
7 12 11 8 6 13 7 4 6 11 5 2 3 4 5 5 7 12 9 10 19 22
9 8 13 9 7 8 9 8 18 8 6 1 7 6 13 10 10 11 13 10 21 23
12 11 12 11 12 10 9 8 7 8 11 7 8 9 11 14 12 10 13 14 15 14
14 13 13 16 17 18 13 12 8 8 12 14 9 9 12 17 14 8 11 12 12 13
13 16 16 17 23 29 26 21 16 11 12 15 18 15 13 14 13 12 12 9 12 12
25 29 30 27 31 32 33 30 20 16 14 16 19 15 14 15 13 8 9 10 10 11
32 33 29 21 10 28 42 33 31 21 18 16 19 19 15 13 11 8 8 10 11 10
33 33 24 17 15 16 13 27 31 29 21 19 20 20 18 13 12 9 10 12 11 9
28 28 26 19 15 14 15 15 18 21 19 19 24 22 22 17 12 9 10 12 12 11
21 22 22 20 17 13 14 12 13 18 22 26 25 23 20 17 9 9 8 13 15 13
Wind_Direction
176 152 307 63 98 151 131 112 65 134 126 115 150 171 131 154 15 188 318 47 110 140
178 169 164 156 96 122 1 35 87 104 133 127 155 170 169 68 340 37 77 7 38 128
182 181 181 227 165 311 311 357 349 57 105 140 161 189 165 63 327 359 133 36 27 32
184 185 184 193 248 285 307 322 62 138 133 95 145 133 101 18 347 328 9 73 100 121
215 192 193 203 215 284 285 285 299 301 321 346 90 86 75 35 3 341 351 351 269 241
250 231 199 210 234 252 268 271 278 293 296 218 309 331 311 324 330 339 321 346 265 246
230 238 239 232 259 251 249 242 239 269 278 280 294 307 308 301 314 327 318 319 323 339
237 245 251 261 261 266 265 262 244 253 278 280 286 294 296 292 300 318 325 322 329 338
244 258 258 261 265 262 264 266 269 259 269 276 278 284 291 294 298 303 312 328 325 333
277 277 276 274 267 262 261 264 265 263 269 273 277 282 288 293 295 299 304 313 323 330
278 279 284 284 251 214 257 261 262 263 267 271 274 277 281 293 299 303 311 313 316 326
282 282 286 282 258 245 269 267 262 260 266 270 273 277 279 283 289 294 302 313 317 323
289 286 286 286 278 267 261 263 250 264 269 273 274 278 275 275 282 277 294 302 311 317
299 295 291 292 290 278 270 258 255 267 276 269 270 275 274 274 264 271 293 296 299 305